Regional Weather Roundup
Issued by NWS Mobile, AL

Home | Current Version | Previous Version | Text Only | Print | Product List | Glossary On
Versions: 1 2 3 4 5 6 7 8 9 10 11 12 13 14 15 16 17 18 19 20 21 22 23 24 25 26 27 28 29 30 31 32 33 34 35 36 37 38 39 40 41 42 43 44 45 46 47 48 49 50
840
ASUS44 KMOB 261612
RWRMOB
REGIONAL WEATHER ROUNDUP
NATIONAL WEATHER SERVICE MOBILE AL
1100 AM CDT WED APR 26 2017

NOTE: "FAIR" INDICATES FEW OR NO CLOUDS BELOW 12,000 FEET WITH NO
      SIGNIFICANT WEATHER AND/OR OBSTRUCTIONS TO VISIBILITY.

  * THESE STATIONS ARE PART OF THE UNIVERSITY OF SOUTH ALABAMA
    MESONET AND ARE NOT UNDER NWS OR FAA QUALITY CONTROL.

ALZ061>064-261700-
COASTAL ALABAMA

CITY           SKY/WX    TMP DP  RH WIND       PRES   REMARKS
MOBILE REG APT PTSUNNY   76  60  57 S15G25    29.82R
BROOKLEY FIELD FAIR      76  62  62 S13G21    29.83R
USA CAMPUS*    NOT AVBL
DOG RIVER*       N/A     73  63  68 S16       30.51


CITY           SKY/WX    TMP DP  RH WIND       PRES   REMARKS
GULF SHORES    PTSUNNY   75  61  61 S12G21    29.83S

$$

ALZ051>060-261700-
INTERIOR SOUTHWEST AND SOUTH CENTRAL ALABAMA

CITY           SKY/WX    TMP DP  RH WIND       PRES   REMARKS
GREENVILLE     PTSUNNY   75  56  51 S9        29.82F
EVERGREEN      FAIR      77  59  53 S12       29.82F
ATMORE*        NOT AVBL
ANDALUSIA/OPP  FAIR      80  57  45 SE9       29.84R
ANDALUSIA*       N/A     77  57  50 S10       29.85S
FLORALA APT    FAIR      77  55  46 S14G22    29.86R
FLORALA*         N/A     79  59  50 NE3       30.50S

$$

FLZ001>006-261700-
WESTERN FLORIDA PANHANDLE

CITY           SKY/WX    TMP DP  RH WIND       PRES   REMARKS
PENSACOLA      FAIR      79  59  50 S14       29.84R
NAS PENSACOLA  FAIR      78  58  49 S15       29.84R
MILTON         FAIR      77  59  53 S20       29.84R
WHTNG S FIELD  FAIR      77  59  53 S14G24    29.84R


CITY           SKY/WX    TMP DP  RH WIND       PRES   REMARKS
JAY*             N/A     77  55  47 SE15      29.83S
DUKE FIELD     MOSUNNY   75  56  50 S16       29.85R
CRESTVIEW      PTSUNNY   78  56  46 S12G20    29.87R
VALPARAISO     MOSUNNY   77  57  49 S16       29.86R
DESTIN         FAIR      79  61  53 S10       29.86R

$$

MSZ076-079-261700-
INTERIOR SOUTHEAST MISSISSIPPI

CITY           SKY/WX    TMP DP  RH WIND       PRES   REMARKS
LEAKESVILLE*   NOT AVBL
AGRICOLA*        N/A     75  63  64 SW2       29.80

$$

MARINE OBSERVATIONS

STATION/POSITION TIME  TEMP    WIND        PRES    WAVE
                       AIR SEA DIR/SP/G            HT/PER
                 (UTC) (F)     (DEG/KT/KT) (MB)    (FT/S)
PASCAGOULA       1548   73     160/ 15/ 19 1009.3R
PETIT BOIS ISLND 1548   73     160/ 13/ 17 1010.1R
GRAND BAY        1445   72     170/ 15     1010.0R
KATRINA CUT      1530   72     170/ 17     1009.5R
CEDAR POINT      1530   73     170/ 17     1009.5R
E DAUPHIN ISLAND 1500   72     160/ 14/ 16 1009.2R
MIDDLE BAY LIGHT 1530   72     160/ 18     1010.5R
USCG MOBILE BAY  1548   73 73  180/ 11/ 18 1010.3R
STATE DOCKS      1548   73 75              1009.9R
MEAHER PARK      1530   72     180/ 16     1009.8R
FORT MORGAN      1548   73     160/ 17/ 20   N/A
12 S ORANGE BCH  1550   72 74  160/ 14/ 16 1009.7R   4/ 5
PENSACOLA BAY    1548   76 72  190/  3/ 11 1010.8R
64 S DAUPHIN ISL 1550   73 74  150/ 16/ 17 1009.3R   3/ 5
67 S FORT MORGAN 1530   72     160/ 17     1009.5R

$$

SELECTED LOCATIONS ACROSS THE REGION

CITY           SKY/WX    TMP DP  RH WIND       PRES   REMARKS
NEW ORLEANS    PTSUNNY   77  67  71 SE22G28   29.73S
GULFPORT       CLOUDY    75  63  66 S12G18    29.79R
PASCAGOULA AP  FAIR      76  60  57 S9G21     29.81R
PASCAGOULA*    NOT AVBL
HATTIESBURG    FAIR      76  60  57 S20       29.78S
LAUREL         CLOUDY    73  61  64 S15G21    29.78S
MERIDIAN       FAIR      73  62  68 S15       29.76F
JACKSON        CLOUDY    73  61  65 S13       29.71S
MONTGOMERY     FAIR      76  57  51 S9        29.82F
TROY           PTSUNNY   75  59  57 S12       29.85S
ASHFORD*         N/A     77  57  50 S10       29.85S
DOTHAN         FAIR      77  57  50 S14       29.89S
PANAMA CITY    FAIR      77  57  50 S14       29.86R

$$





USA.gov is the U.S. government's official web portal to all federal, state and local government web resources and services.